This is the latest recevied weather packets stored in our database for station/object OK1HOL-13. If no packets are shown the sender has not sent any weather packets the latest 10 day(s).
| Time | Temp. | Humidity | Pressure | Rain* | Wind** | Luminosity | Snow |
|---|---|---|---|---|---|---|---|
| 1777968960 | 21.67° C | 44% | 1007.9 hPa | - | - | 416 W/m² | - |
| 1777968360 | 21.67° C | 44% | 1007.9 hPa | - | - | 372 W/m² | - |
| 1777967760 | 21.67° C | 44% | 1008 hPa | - | - | 347 W/m² | - |
| 1777967160 | 21.67° C | 47% | 1008.1 hPa | - | - | 368 W/m² | - |
| 1777966560 | 21.11° C | 48% | 1008.1 hPa | - | - | 323 W/m² | - |
| 1777965960 | 20.56° C | 51% | 1008.2 hPa | - | - | 223 W/m² | - |
| 1777965360 | 20.56° C | 50% | 1008.3 hPa | - | - | 142 W/m² | - |
| 1777964760 | 20.56° C | 49% | 1008.3 hPa | - | - | 117 W/m² | - |
| 1777964160 | 20.56° C | 50% | 1008.4 hPa | - | - | 242 W/m² | - |
| 1777963560 | 20° C | 54% | 1008.5 hPa | - | - | 185 W/m² | - |
| 1777962960 | 20° C | 54% | 1008.6 hPa | - | - | 112 W/m² | - |
| 1777962360 | 19.44° C | 58% | 1008.7 hPa | - | - | 189 W/m² | - |
| 1777961760 | 17.78° C | 61% | 1008.5 hPa | - | - | 165 W/m² | - |
| 1777961160 | 17.22° C | 66% | 1008.7 hPa | - | - | 105 W/m² | - |
| 1777960560 | 17.22° C | 65% | 1008.8 hPa | - | - | 65 W/m² | - |
| 1777959960 | 16.67° C | 65% | 1008.7 hPa | - | - | 40 W/m² | - |
| 1777959360 | 16.67° C | 65% | 1008.6 hPa | - | - | 40 W/m² | - |
| 1777958760 | 16.67° C | 65% | 1008.6 hPa | - | - | 37 W/m² | - |
| 1777958160 | 16.11° C | 68% | 1008.7 hPa | - | - | 41 W/m² | - |
| 1777957560 | 16.11° C | 69% | 1008.6 hPa | - | - | 43 W/m² | - |
| 1777956959 | 15.56° C | 75% | 1008.7 hPa | - | - | 49 W/m² | - |
| 1777956360 | 15° C | 75% | 1008.6 hPa | - | - | 43 W/m² | - |
| 1777955760 | 15° C | 79% | 1008.7 hPa | - | - | 31 W/m² | - |
| 1777955160 | 15° C | 79% | 1008.8 hPa | - | - | 19 W/m² | - |
| 1777954560 | 14.44° C | 79% | 1008.8 hPa | - | - | 10 W/m² | - |
* Rain since midnight (hover to see other rain measurements)
** Current wind speed in m/s (hover to see current wind gust speed)